Sharp Lady — 2EKQ4 — position and weather

sailwx.info

Track history (hours):
 
Tides and Currents Weather Stations Pressure Air Temp Water Temp Dewpoint Dewpoint Depression Visibility Wind Speed Wind Dir Waves Ship Positions

Sharp Lady

Last reported at 2014-Oct-22 09:19 UTC. Time now 2014-Oct-23 13:48 UTC.
Position N 59°34' E 022°58'.

Length 250 m; draft 14.7 m.

Type: Ship. MMSI: 235090261.

Date/timePositionNaut miles runAvg speedWind from/ knotsBaromVisibWave heightAir tempDewpointWater temp
2014-Oct-22 09:19N 59°34' E 022°58'1012.1
2014-Oct-22 08:32N 59°37' E 023°16'1212.2
2014-Oct-22 07:33N 59°40' E 023°39'1212.4
2014-Oct-22 06:33N 59°44' E 024°03'1212.6
2014-Oct-22 05:33N 59°47' E 024°26'5212.4
2014-Oct-22 01:20N 59°58' E 026°08'1012.4
2014-Oct-22 00:33N 60°01' E 026°27'1212.0
2014-Oct-21 23:33N 60°00' E 026°51'1211.3
2014-Oct-21 22:32N 60°03' E 027°14'  
2014-Oct-18 14:22N 60°04' E 027°22'1012.9
2014-Oct-18 13:33N 59°58' E 027°04'1312.8
2014-Oct-18 12:34N 59°59' E 026°39'1312.8
2014-Oct-18 11:32N 59°56' E 026°14'1212.8
2014-Oct-18 10:33N 59°53' E 025°49'1612.6
2014-Oct-18 09:15N 59°49' E 025°18'912.7
2014-Oct-18 08:31N 59°47' E 024°59'1212.6
2014-Oct-18 07:33N 59°44' E 024°36'1312.4
2014-Oct-18 06:30N 59°41' E 024°11'1312.5
2014-Oct-18 05:28N 59°37' E 023°46'1212.5
2014-Oct-18 04:30N 59°33' E 023°24'1212.7
2014-Oct-18 03:31N 59°29' E 023°01'32911.6
2014-Oct-16 23:17N 55°38' E 015°44'912.6
2014-Oct-16 22:33N 55°36' E 015°28'1312.6
2014-Oct-16 21:33N 55°31' E 015°08'1312.8
2014-Oct-16 20:33N 55°25' E 014°48'1212.4
2014-Oct-16 19:34N 55°17' E 014°31'1312.8
2014-Oct-16 18:34N 55°07' E 014°17'1212.4
2014-Oct-16 17:34N 54°60' E 013°60'5412.5
2014-Oct-16 13:17N 54°41' E 012°33'912.7
2014-Oct-16 12:32N 54°35' E 012°19'1111.4
2014-Oct-16 11:33N 54°25' E 012°11'1414.3
2014-Oct-16 10:34N 54°25' E 011°46'1814.1
2014-Oct-16 09:16N 54°32' E 011°18'1113.8
2014-Oct-16 08:27N 54°38' E 011°01'12711.3
2014-Oct-15 21:16N 56°43' E 011°47'710.1
2014-Oct-15 20:33N 56°50' E 011°48'1211.6
2014-Oct-15 19:33N 57°01' E 011°41'1110.7
2014-Oct-15 18:32N 57°11' E 011°35'1212.0
2014-Oct-15 17:33N 57°22' E 011°27'1111.2
2014-Oct-15 16:33N 57°32' E 011°15'1111.4
2014-Oct-15 15:34N 57°40' E 011°00'1111.1
2014-Oct-15 14:34N 57°47' E 010°45'10 9.9
2014-Oct-15 13:34N 57°48' E 010°27'1010.2
2014-Oct-15 12:33N 57°47' E 010°08'1010.1
2014-Oct-15 11:33N 57°48' E 009°49'44011.3
2014-Oct-13 20:33N 51°46' E 002°35'1413.5
2014-Oct-13 19:33N 51°34' E 002°23'1313.2
2014-Oct-13 18:33N 51°23' E 002°12'1010.1
2014-Oct-13 17:33N 51°22' E 002°28'1110.6
2014-Oct-13 16:33N 51°22' E 002°45'1212.3
2014-Oct-13 15:33N 51°24' E 003°05'1312.6
2014-Oct-13 14:33N 51°25' E 003°25'1010.4
2014-Oct-13 13:33N 51°26' E 003°41'10 9.9
2014-Oct-13 12:33N 51°23' E 003°56'8 8.0
2014-Oct-13 11:34N 51°23' E 004°09'5 5.4
2014-Oct-13 10:34N 51°21' E 004°17'0 0.0
2014-Oct-13 09:34N 51°21' E 004°17'2 1.6
2014-Oct-13 08:33N 51°19' E 004°19'5 4.6
2014-Oct-13 07:34N 51°15' E 004°22'0 0.2
2014-Oct-13 06:33N 51°15' E 004°22'0 0.0
2014-Oct-13 05:33N 51°15' E 004°22'0 0.0
2014-Oct-13 04:33N 51°15' E 004°22'0 0.0
2014-Oct-13 03:30N 51°15' E 004°22'0 0.0
2014-Oct-13 02:33N 51°15' E 004°22'0 0.0
2014-Oct-13 01:33N 51°15' E 004°22'0 0.0
2014-Oct-13 00:33N 51°15' E 004°22'0 0.0
2014-Oct-12 23:33N 51°15' E 004°22'0 0.0
2014-Oct-12 22:33N 51°15' E 004°22'0 0.0
2014-Oct-12 21:30N 51°15' E 004°22'0 0.0
2014-Oct-12 20:33N 51°15' E 004°22'0 0.0
2014-Oct-12 19:33N 51°15' E 004°22'0 0.0
2014-Oct-12 18:33N 51°15' E 004°22'0 0.0
2014-Oct-12 17:33N 51°15' E 004°22'0 0.0
2014-Oct-12 16:27N 51°15' E 004°22'0 0.0
2014-Oct-12 15:33N 51°15' E 004°22'0 0.0
2014-Oct-12 14:33N 51°15' E 004°22'0 0.0
2014-Oct-12 13:33N 51°15' E 004°22'0 0.0
2014-Oct-12 12:33N 51°15' E 004°22'0 0.0
2014-Oct-12 11:33N 51°15' E 004°22'0 0.0
2014-Oct-12 10:33N 51°15' E 004°22'0 0.0
2014-Oct-12 09:33N 51°15' E 004°22'  
Track history (hours):
 
Tides and Currents Weather Stations Pressure Air Temp Water Temp Dewpoint Dewpoint Depression Visibility Wind Speed Wind Dir Waves Ship Positions

Sharp Lady

Last reported at 2014-Oct-22 09:19 UTC. Time now 2014-Oct-23 13:48 UTC.
Position N 59°34' E 022°58'.

Length 250 m; draft 14.7 m.

Type: Ship. MMSI: 235090261.

Date/timePositionNaut miles runAvg speedWind from/ knotsBaromVisibWave heightAir tempDewpointWater temp
2014-Oct-22 09:19N 59°34' E 022°58'1012.1
2014-Oct-22 08:32N 59°37' E 023°16'1212.2
2014-Oct-22 07:33N 59°40' E 023°39'1212.4
2014-Oct-22 06:33N 59°44' E 024°03'1212.6
2014-Oct-22 05:33N 59°47' E 024°26'5212.4
2014-Oct-22 01:20N 59°58' E 026°08'1012.4
2014-Oct-22 00:33N 60°01' E 026°27'1212.0
2014-Oct-21 23:33N 60°00' E 026°51'1211.3
2014-Oct-21 22:32N 60°03' E 027°14'  
2014-Oct-18 14:22N 60°04' E 027°22'1012.9
2014-Oct-18 13:33N 59°58' E 027°04'1312.8
2014-Oct-18 12:34N 59°59' E 026°39'1312.8
2014-Oct-18 11:32N 59°56' E 026°14'1212.8
2014-Oct-18 10:33N 59°53' E 025°49'1612.6
2014-Oct-18 09:15N 59°49' E 025°18'912.7
2014-Oct-18 08:31N 59°47' E 024°59'1212.6
2014-Oct-18 07:33N 59°44' E 024°36'1312.4
2014-Oct-18 06:30N 59°41' E 024°11'1312.5
2014-Oct-18 05:28N 59°37' E 023°46'1212.5
2014-Oct-18 04:30N 59°33' E 023°24'1212.7
2014-Oct-18 03:31N 59°29' E 023°01'32911.6
2014-Oct-16 23:17N 55°38' E 015°44'912.6
2014-Oct-16 22:33N 55°36' E 015°28'1312.6
2014-Oct-16 21:33N 55°31' E 015°08'1312.8
2014-Oct-16 20:33N 55°25' E 014°48'1212.4
2014-Oct-16 19:34N 55°17' E 014°31'1312.8
2014-Oct-16 18:34N 55°07' E 014°17'1212.4
2014-Oct-16 17:34N 54°60' E 013°60'5412.5
2014-Oct-16 13:17N 54°41' E 012°33'912.7
2014-Oct-16 12:32N 54°35' E 012°19'1111.4
2014-Oct-16 11:33N 54°25' E 012°11'1414.3
2014-Oct-16 10:34N 54°25' E 011°46'1814.1
2014-Oct-16 09:16N 54°32' E 011°18'1113.8
2014-Oct-16 08:27N 54°38' E 011°01'12711.3
2014-Oct-15 21:16N 56°43' E 011°47'710.1
2014-Oct-15 20:33N 56°50' E 011°48'1211.6
2014-Oct-15 19:33N 57°01' E 011°41'1110.7
2014-Oct-15 18:32N 57°11' E 011°35'1212.0
2014-Oct-15 17:33N 57°22' E 011°27'1111.2
2014-Oct-15 16:33N 57°32' E 011°15'1111.4
2014-Oct-15 15:34N 57°40' E 011°00'1111.1
2014-Oct-15 14:34N 57°47' E 010°45'10 9.9
2014-Oct-15 13:34N 57°48' E 010°27'1010.2
2014-Oct-15 12:33N 57°47' E 010°08'1010.1
2014-Oct-15 11:33N 57°48' E 009°49'44011.3
2014-Oct-13 20:33N 51°46' E 002°35'1413.5
2014-Oct-13 19:33N 51°34' E 002°23'1313.2
2014-Oct-13 18:33N 51°23' E 002°12'1010.1
2014-Oct-13 17:33N 51°22' E 002°28'1110.6
2014-Oct-13 16:33N 51°22' E 002°45'1212.3
2014-Oct-13 15:33N 51°24' E 003°05'1312.6
2014-Oct-13 14:33N 51°25' E 003°25'1010.4
2014-Oct-13 13:33N 51°26' E 003°41'10 9.9
2014-Oct-13 12:33N 51°23' E 003°56'8 8.0
2014-Oct-13 11:34N 51°23' E 004°09'5 5.4
2014-Oct-13 10:34N 51°21' E 004°17'0 0.0
2014-Oct-13 09:34N 51°21' E 004°17'2 1.6
2014-Oct-13 08:33N 51°19' E 004°19'5 4.6
2014-Oct-13 07:34N 51°15' E 004°22'0 0.2
2014-Oct-13 06:33N 51°15' E 004°22'0 0.0
2014-Oct-13 05:33N 51°15' E 004°22'0 0.0
2014-Oct-13 04:33N 51°15' E 004°22'0 0.0
2014-Oct-13 03:30N 51°15' E 004°22'0 0.0
2014-Oct-13 02:33N 51°15' E 004°22'0 0.0
2014-Oct-13 01:33N 51°15' E 004°22'0 0.0
2014-Oct-13 00:33N 51°15' E 004°22'0 0.0
2014-Oct-12 23:33N 51°15' E 004°22'0 0.0
2014-Oct-12 22:33N 51°15' E 004°22'0 0.0
2014-Oct-12 21:30N 51°15' E 004°22'0 0.0
2014-Oct-12 20:33N 51°15' E 004°22'0 0.0
2014-Oct-12 19:33N 51°15' E 004°22'0 0.0
2014-Oct-12 18:33N 51°15' E 004°22'0 0.0
2014-Oct-12 17:33N 51°15' E 004°22'0 0.0
2014-Oct-12 16:27N 51°15' E 004°22'0 0.0
2014-Oct-12 15:33N 51°15' E 004°22'0 0.0
2014-Oct-12 14:33N 51°15' E 004°22'0 0.0
2014-Oct-12 13:33N 51°15' E 004°22'0 0.0
2014-Oct-12 12:33N 51°15' E 004°22'0 0.0
2014-Oct-12 11:33N 51°15' E 004°22'0 0.0
2014-Oct-12 10:33N 51°15' E 004°22'0 0.0
2014-Oct-12 09:33N 51°15' E 004°22'  

Dump ship's entire track history